Peachtree City, GA

7:10 AM EDT on September 21, 2017 (GMT -0400)
Peachtree City-Falcon

Weather History for KFFC - September, 2012

Change the Weather History Date:

Wednesday, September 5, 2012

  Actual Average Record
Temperature  
Mean Temperature 78 °F 76 °F  
Max Temperature 86 °F 87 °F 96 °F (1999)
Min Temperature 71 °F 64 °F 51 °F (2010)
Degree Days  
Heating Degree Days 0 0  
Month to date heating degree days 0  
Since 1 July heating degree days 0  
Cooling Degree Days 12 11  
Month to date cooling degree days 56  
Year to date cooling degree days 1436  
Growing Degree Days 28 (Base 50)    
Moisture  
Dew Point 71 °F    
Average Humidity 88    
Maximum Humidity 100    
Minimum Humidity 65    
Precipitation  
Precipitation 0.01 in 0.12 in 0.52 in (2017)
Month to date precipitation 0.63  
Year to date precipitation 35.36  
Snow  
Snow 0.00 in - - ()
Month to date snowfall  
Since 1 July snowfall  
Since 1 September snowfall  
Snow Depth -    
Sea Level Pressure  
Sea Level Pressure 29.95 in    
Wind  
Wind Speed 1 mph (SE)    
Max Wind Speed 7 mph    
Max Gust Speed -    
Visibility 8 miles    
Events Rain    
T = Trace of Precipitation, MM = Missing Value Source: NWS Daily Summary

Daily Weather History Graph

Daily Weather History Graph

Search for Another Location

Airport or City:

Trip Planner

Search our weather history database for the weather conditions in past years. The results will help you decide how hot, cold, wet, or windy it might be!

Date:

Astronomy

Sep. 05, 2012 Rise Set
Actual Time 7:15 AM EDT 7:57 PM EDT
Civil Twilight 6:50 AM EDT 8:22 PM EDT
Nautical Twilight 6:20 AM EDT 8:52 PM EDT
Astronomical Twilight 5:50 AM EDT 9:22 PM EDT
Moon 10:46 PM EDT (9/5) 12:00 PM EDT (9/5)
Length of Visible Light 13h 32m
Length of Day
12h 42m
Waning Gibbous, 76% of the Moon is Illuminated
Sep 5
Waning Gibbous
Sep 8
Last Quarter
Sep 15
New
Sep 22
First Quarter
Sep 29
Full

Hourly Weather History & Observations

Time (EDT) Temp. Heat Index Dew Point Humidity Pressure Visibility Wind Dir Wind Speed Gust Speed Precip Events Conditions
12:53 AM 72.0 °F - 71.1 °F 97% 29.94 in 8.0 mi Calm Calm - N/A   Overcast
1:38 AM 71.6 °F - 71.6 °F 100% 29.95 in 5.0 mi Calm Calm - N/A   Mostly Cloudy
1:53 AM 72.0 °F - 70.0 °F 93% 29.94 in 6.0 mi Calm Calm - N/A   Mostly Cloudy
2:25 AM 71.6 °F - 69.8 °F 94% 29.95 in 5.0 mi Calm Calm - N/A   Overcast
2:53 AM 72.0 °F - 71.1 °F 97% 29.93 in 6.0 mi Calm Calm - N/A   Overcast
3:10 AM 71.6 °F - 69.8 °F 94% 29.94 in 5.0 mi Calm Calm - N/A   Scattered Clouds
3:53 AM 71.1 °F - 70.0 °F 96% 29.93 in 6.0 mi SE 3.5 mph - N/A   Partly Cloudy
4:25 AM 71.6 °F - 69.8 °F 94% 29.93 in 6.0 mi SE 4.6 mph - N/A   Overcast
4:53 AM 71.1 °F - 70.0 °F 96% 29.92 in 6.0 mi Calm Calm - N/A   Overcast
5:53 AM 72.0 °F - 70.0 °F 93% 29.94 in 9.0 mi Calm Calm - N/A   Overcast
6:15 AM 71.6 °F - 69.8 °F 94% 29.95 in 2.5 mi Calm Calm - 0.00 in Rain Light Rain
6:22 AM 71.6 °F - 69.8 °F 94% 29.96 in 5.0 mi Calm Calm - 0.00 in   Overcast
6:36 AM 71.6 °F - 69.8 °F 94% 29.96 in 7.0 mi Calm Calm - 0.00 in   Overcast
6:44 AM 71.6 °F - 69.8 °F 94% 29.96 in 7.0 mi Calm Calm - 0.00 in   Overcast
6:53 AM 72.0 °F - 70.0 °F 93% 29.94 in 9.0 mi Calm Calm - 0.00 in   Overcast
7:03 AM 71.6 °F - 69.8 °F 94% 29.96 in 7.0 mi Calm Calm - 0.01 in   Overcast
7:35 AM 71.6 °F - 69.8 °F 94% 29.96 in 6.0 mi ESE 3.5 mph - 0.01 in   Overcast
7:53 AM 72.0 °F - 70.0 °F 93% 29.96 in 6.0 mi Calm Calm - 0.01 in   Overcast
8:02 AM 71.6 °F - 71.6 °F 100% 29.97 in 7.0 mi Calm Calm - N/A   Overcast
8:53 AM 73.0 °F - 71.1 °F 93% 29.97 in 7.0 mi ESE 3.5 mph - N/A   Overcast
9:53 AM 73.9 °F - 71.1 °F 91% 29.97 in 10.0 mi Calm Calm - N/A   Overcast
10:16 AM 75.2 °F - 71.6 °F 89% 30.00 in 10.0 mi SE 4.6 mph - N/A   Overcast
10:31 AM 75.2 °F - 71.6 °F 89% 30.00 in 10.0 mi SE 3.5 mph - N/A   Overcast
10:38 AM 75.2 °F - 71.6 °F 89% 30.00 in 10.0 mi Variable 4.6 mph - N/A   Overcast
10:53 AM 75.0 °F - 71.1 °F 87% 29.99 in 9.0 mi SE 4.6 mph - N/A   Overcast
11:03 AM 75.2 °F - 71.6 °F 89% 30.00 in 10.0 mi Variable 3.5 mph - N/A   Overcast
11:50 AM 75.2 °F - 71.6 °F 89% 30.00 in 10.0 mi Calm Calm - 0.00 in   Overcast
11:53 AM 75.9 °F - 72.0 °F 87% 29.99 in 10.0 mi ESE 3.5 mph - 0.00 in   Overcast
12:15 PM 78.8 °F - 71.6 °F 78% 30.00 in 10.0 mi Calm Calm - N/A   Overcast
12:22 PM 78.8 °F - 71.6 °F 78% 29.99 in 10.0 mi Variable 3.5 mph - N/A   Overcast
12:53 PM 79.0 °F - 72.0 °F 79% 29.96 in 10.0 mi ESE 6.9 mph - N/A   Overcast
1:53 PM 82.0 °F 86.7 °F 72.0 °F 71% 29.94 in 10.0 mi ESE 6.9 mph - N/A   Mostly Cloudy
2:53 PM 82.9 °F 87.5 °F 71.1 °F 67% 29.92 in 10.0 mi SSE 5.8 mph - N/A   Mostly Cloudy
3:53 PM 82.0 °F 86.3 °F 71.1 °F 69% 29.91 in 10.0 mi SSE 4.6 mph - N/A   Scattered Clouds
4:53 PM 84.0 °F 89.0 °F 71.1 °F 65% 29.89 in 10.0 mi SSE 3.5 mph - N/A   Mostly Cloudy
5:53 PM 84.0 °F 89.6 °F 72.0 °F 67% 29.89 in 10.0 mi SE 5.8 mph - N/A   Mostly Cloudy
6:53 PM 82.9 °F 88.8 °F 73.0 °F 72% 29.88 in 10.0 mi SSE 4.6 mph - N/A   Clear
7:53 PM 78.1 °F - 73.0 °F 84% 29.88 in 10.0 mi Calm Calm - N/A   Clear
8:53 PM 75.9 °F - 73.0 °F 91% 29.90 in 10.0 mi Calm Calm - N/A   Clear
9:53 PM 75.0 °F - 72.0 °F 90% 29.93 in 10.0 mi Calm Calm - N/A   Mostly Cloudy
10:53 PM 73.9 °F - 71.1 °F 91% 29.94 in 10.0 mi SSE 3.5 mph - N/A   Clear
11:53 PM 73.9 °F - 71.1 °F 91% 29.94 in 10.0 mi Calm Calm - N/A   Mostly Cloudy